Time,TemperatureF,DewpointF,PressureIn,WindDirection,WindDirectionDegrees,WindSpeedMPH,WindSpeedGustMPH,Humidity,HourlyPrecipIn,Conditions,Clouds,dailyrainin,SoftwareType,DateUTC
2013-03-18 00:02:00,18.7,1.8,28.97,North,0,0.0,0.0,47,0.00,,BKN100,0.00,VWS V14.01,2013-03-18 05:02:00,
2013-03-18 00:07:00,18.7,2.2,28.97,North,0,0.0,0.0,48,0.00,,BKN100,0.00,VWS V14.01,2013-03-18 05:07:00,
2013-03-18 00:12:00,18.7,2.2,28.97,North,0,0.0,0.0,48,0.00,,BKN100,0.00,VWS V14.01,2013-03-18 05:12:00,
2013-03-18 00:17:00,18.7,2.2,28.97,North,0,0.0,0.0,48,0.00,,BKN100,0.00,VWS V14.01,2013-03-18 05:17:00,
2013-03-18 00:23:00,18.7,2.7,28.97,North,0,0.0,0.0,49,0.00,,BKN100,0.00,VWS V14.01,2013-03-18 05:23:00,
2013-03-18 00:28:00,18.8,2.8,28.97,North,0,0.0,0.0,49,0.00,,BKN100,0.00,VWS V14.01,2013-03-18 05:28:00,
2013-03-18 00:33:00,18.8,2.8,28.97,North,0,0.0,0.0,49,0.00,,BKN100,0.00,VWS V14.01,2013-03-18 05:33:00,
2013-03-18 00:38:00,18.8,2.8,28.97,North,0,0.0,0.0,49,0.00,,BKN100,0.00,VWS V14.01,2013-03-18 05:38:00,
2013-03-18 00:44:00,18.8,2.8,28.97,North,0,0.0,0.0,49,0.00,,OVC100,0.00,VWS V14.01,2013-03-18 05:44:00,
2013-03-18 00:49:00,18.8,2.8,28.97,North,0,0.0,0.0,49,0.00,,OVC100,0.00,VWS V14.01,2013-03-18 05:49:00,
2013-03-18 00:54:00,18.8,3.3,28.97,North,0,0.0,0.0,50,0.00,,OVC100,0.00,VWS V14.01,2013-03-18 05:54:00,
2013-03-18 00:59:00,18.8,3.3,28.97,North,0,0.0,0.0,50,0.00,,OVC100,0.00,VWS V14.01,2013-03-18 05:59:00,
2013-03-18 01:05:00,18.8,3.3,28.97,North,0,0.0,0.0,50,0.00,,OVC027,0.00,VWS V14.01,2013-03-18 06:05:00,
2013-03-18 01:10:00,18.8,3.3,28.97,North,0,0.0,0.0,50,0.00,,OVC027,0.00,VWS V14.01,2013-03-18 06:10:00,
2013-03-18 01:15:00,18.8,3.7,28.97,North,0,0.0,0.0,51,0.00,,OVC027,0.00,VWS V14.01,2013-03-18 06:15:00,
2013-03-18 01:20:00,18.8,3.7,28.97,North,0,0.0,0.0,51,0.00,,OVC027,0.00,VWS V14.01,2013-03-18 06:20:00,
2013-03-18 01:26:00,18.8,3.7,28.97,North,0,0.0,0.0,51,0.00,,OVC027,0.00,VWS V14.01,2013-03-18 06:26:00,
2013-03-18 01:32:00,18.8,3.7,28.97,North,0,0.0,0.0,51,0.00,,OVC027,0.00,VWS V14.01,2013-03-18 06:32:00,
2013-03-18 01:37:00,18.8,3.7,28.94,North,0,0.0,0.0,51,0.00,,OVC027,0.00,VWS V14.01,2013-03-18 06:37:00,
2013-03-18 01:42:00,18.8,3.7,28.94,North,0,0.0,0.0,51,0.00,,OVC027,0.00,VWS V14.01,2013-03-18 06:42:00,
2013-03-18 01:47:00,18.8,4.1,28.94,North,0,0.0,0.0,52,0.00,,OVC027,0.00,VWS V14.01,2013-03-18 06:47:00,
2013-03-18 01:52:00,18.8,4.1,28.94,North,0,0.0,0.0,52,0.00,,OVC027,0.00,VWS V14.01,2013-03-18 06:52:00,
2013-03-18 01:58:00,18.8,4.1,28.94,North,0,0.0,0.0,52,0.00,,OVC027,0.00,VWS V14.01,2013-03-18 06:58:00,
2013-03-18 02:03:00,18.7,4.0,28.94,North,0,0.0,0.0,52,0.00,,OVC025,0.00,VWS V14.01,2013-03-18 07:03:00,
2013-03-18 02:08:00,18.7,4.0,28.94,North,0,0.0,0.0,52,0.00,,OVC025,0.00,VWS V14.01,2013-03-18 07:08:00,
2013-03-18 02:14:00,18.7,4.0,28.94,North,0,0.0,0.0,52,0.00,,OVC025,0.00,VWS V14.01,2013-03-18 07:14:00,
2013-03-18 02:19:00,18.7,4.0,28.94,North,0,0.0,0.0,52,0.00,,OVC025,0.00,VWS V14.01,2013-03-18 07:19:00,
2013-03-18 02:24:00,18.7,4.4,28.94,North,0,0.0,0.0,53,0.00,,OVC025,0.00,VWS V14.01,2013-03-18 07:24:00,
2013-03-18 02:29:00,18.5,4.2,28.94,North,0,0.0,0.0,53,0.00,,OVC025,0.00,VWS V14.01,2013-03-18 07:29:00,
2013-03-18 02:34:00,18.5,4.2,28.91,North,0,0.0,0.0,53,0.00,,OVC025,0.00,VWS V14.01,2013-03-18 07:34:00,
2013-03-18 02:40:00,18.3,4.1,28.91,North,0,0.0,0.0,53,0.00,,OVC025,0.00,VWS V14.01,2013-03-18 07:40:00,
2013-03-18 02:45:00,18.3,4.1,28.91,North,0,0.0,0.0,53,0.00,,OVC025,0.00,VWS V14.01,2013-03-18 07:45:00,
2013-03-18 02:50:00,18.3,4.1,28.91,North,0,0.0,0.0,53,0.00,,OVC025,0.00,VWS V14.01,2013-03-18 07:50:00,
2013-03-18 02:55:00,18.1,3.9,28.91,North,0,0.0,0.0,53,0.00,,OVC025,0.00,VWS V14.01,2013-03-18 07:55:00,
2013-03-18 03:01:00,18.1,3.9,28.91,North,0,0.0,0.0,53,0.00,,OVC023,0.00,VWS V14.01,2013-03-18 08:01:00,
2013-03-18 03:07:00,18.1,3.9,28.88,North,0,0.0,0.0,53,0.00,,OVC023,0.00,VWS V14.01,2013-03-18 08:07:00,
2013-03-18 03:12:00,18.1,4.3,28.88,North,0,0.0,0.0,54,0.00,,OVC023,0.00,VWS V14.01,2013-03-18 08:12:00,
2013-03-18 03:17:00,18.1,4.3,28.88,North,0,0.0,0.0,54,0.00,,OVC023,0.00,VWS V14.01,2013-03-18 08:17:00,
2013-03-18 03:22:00,18.1,4.3,28.88,North,0,0.0,0.0,54,0.00,,OVC100,0.00,VWS V14.01,2013-03-18 08:22:00,
2013-03-18 03:27:00,17.9,4.1,28.88,North,0,0.0,0.0,54,0.00,,OVC100,0.00,VWS V14.01,2013-03-18 08:27:00,
2013-03-18 03:33:00,17.9,4.1,28.88,North,0,0.0,0.0,54,0.00,,OVC100,0.00,VWS V14.01,2013-03-18 08:33:00,
2013-03-18 03:38:00,17.9,4.1,28.88,North,0,0.0,0.0,54,0.00,,OVC100,0.00,VWS V14.01,2013-03-18 08:38:00,
2013-03-18 03:43:00,17.8,4.3,28.88,North,0,0.0,0.0,55,0.00,,OVC100,0.00,VWS V14.01,2013-03-18 08:43:00,
2013-03-18 03:49:00,17.8,4.3,28.85,North,0,0.0,0.0,55,0.00,,OVC100,0.00,VWS V14.01,2013-03-18 08:49:00,
2013-03-18 03:54:00,17.8,4.3,28.85,North,0,0.0,0.0,55,0.00,,OVC100,0.00,VWS V14.01,2013-03-18 08:54:00,
2013-03-18 03:59:00,17.8,4.3,28.85,North,0,0.0,0.0,55,0.00,,OVC100,0.00,VWS V14.01,2013-03-18 08:59:00,
2013-03-18 04:04:00,17.6,4.2,28.85,North,0,0.0,0.0,55,0.00,,OVC100,0.00,VWS V14.01,2013-03-18 09:04:00,
2013-03-18 04:09:00,17.6,4.2,28.85,North,0,0.0,0.0,55,0.00,,OVC100,0.00,VWS V14.01,2013-03-18 09:09:00,
2013-03-18 04:15:00,17.6,4.2,28.85,North,0,0.0,0.0,55,0.00,,FEW100,0.00,VWS V14.01,2013-03-18 09:15:00,
2013-03-18 04:20:00,17.6,4.6,28.85,North,0,0.0,0.0,56,0.00,,FEW100,0.00,VWS V14.01,2013-03-18 09:20:00,
2013-03-18 04:25:00,17.4,4.4,28.85,North,0,0.0,0.0,56,0.00,,FEW100,0.00,VWS V14.01,2013-03-18 09:25:00,
2013-03-18 04:30:00,17.4,4.4,28.85,North,0,0.0,0.0,56,0.00,,FEW100,0.00,VWS V14.01,2013-03-18 09:30:00,
2013-03-18 04:36:00,17.4,4.4,28.82,North,0,0.0,0.0,56,0.00,,FEW100,0.00,VWS V14.01,2013-03-18 09:36:00,
2013-03-18 04:42:00,17.4,4.8,28.82,North,0,0.0,0.0,57,0.00,,FEW100,0.00,VWS V14.01,2013-03-18 09:42:00,
2013-03-18 04:47:00,17.4,4.8,28.82,North,0,0.0,0.0,57,0.00,,FEW100,0.00,VWS V14.01,2013-03-18 09:47:00,
2013-03-18 04:52:00,17.4,4.8,28.82,North,0,0.0,0.0,57,0.00,,FEW100,0.00,VWS V14.01,2013-03-18 09:52:00,
2013-03-18 04:58:00,17.6,4.9,28.82,North,0,0.0,0.0,57,0.00,,FEW100,0.00,VWS V14.01,2013-03-18 09:58:00,
2013-03-18 05:03:00,17.6,5.3,28.79,North,0,0.0,0.0,58,0.00,,BKN036,0.00,VWS V14.01,2013-03-18 10:03:00,
2013-03-18 05:08:00,17.8,5.5,28.79,North,0,0.0,0.0,58,0.00,,BKN036,0.00,VWS V14.01,2013-03-18 10:08:00,
2013-03-18 05:13:00,17.9,5.7,28.79,North,0,0.0,0.0,58,0.00,,BKN036,0.00,VWS V14.01,2013-03-18 10:13:00,
2013-03-18 05:18:00,18.1,5.8,28.79,North,0,0.0,0.0,58,0.00,,BKN036,0.00,VWS V14.01,2013-03-18 10:18:00,
2013-03-18 05:23:00,18.3,6.0,28.79,North,0,0.0,0.0,58,0.00,,BKN036,0.00,VWS V14.01,2013-03-18 10:23:00,
2013-03-18 05:29:00,18.3,6.4,28.79,North,0,0.0,0.0,59,0.00,,BKN036,0.00,VWS V14.01,2013-03-18 10:29:00,
2013-03-18 05:34:00,18.5,6.6,28.79,North,0,0.0,0.0,59,0.00,,BKN036,0.00,VWS V14.01,2013-03-18 10:34:00,
2013-03-18 05:39:00,18.7,6.7,28.79,North,0,0.0,0.0,59,0.00,,BKN036,0.00,VWS V14.01,2013-03-18 10:39:00,
2013-03-18 05:45:00,19.0,7.1,28.79,North,0,0.0,0.0,59,0.00,,BKN036,0.00,VWS V14.01,2013-03-18 10:45:00,
2013-03-18 05:52:00,19.2,7.2,28.79,North,0,0.0,0.0,59,0.00,,BKN036,0.00,VWS V14.01,2013-03-18 10:52:00,
2013-03-18 05:58:00,19.2,7.2,28.79,North,0,0.0,0.0,59,0.00,,BKN036,0.00,VWS V14.01,2013-03-18 10:58:00,
2013-03-18 06:03:00,19.6,7.6,28.79,North,0,0.0,0.0,59,0.00,,OVC036,0.00,VWS V14.01,2013-03-18 11:03:00,
2013-03-18 06:08:00,19.7,7.8,28.79,North,0,0.0,0.0,59,0.00,,OVC036,0.00,VWS V14.01,2013-03-18 11:08:00,
2013-03-18 06:14:00,19.9,7.9,28.79,North,0,0.0,0.0,59,0.00,,OVC036,0.00,VWS V14.01,2013-03-18 11:14:00,
2013-03-18 06:19:00,19.9,7.9,28.79,North,0,0.0,0.0,59,0.00,,OVC036,0.00,VWS V14.01,2013-03-18 11:19:00,
2013-03-18 06:24:00,19.9,7.9,28.79,North,0,0.0,0.0,59,0.00,,OVC036,0.00,VWS V14.01,2013-03-18 11:24:00,
2013-03-18 06:30:00,19.9,7.9,28.79,North,0,0.0,0.0,59,0.00,,OVC036,0.00,VWS V14.01,2013-03-18 11:30:00,
2013-03-18 06:36:00,20.1,8.1,28.79,North,0,0.0,0.0,59,0.00,,OVC036,0.00,VWS V14.01,2013-03-18 11:36:00,
2013-03-18 06:41:00,20.1,8.1,28.79,North,0,0.0,0.0,59,0.00,,OVC036,0.00,VWS V14.01,2013-03-18 11:41:00,
2013-03-18 06:46:00,20.1,8.1,28.79,North,0,0.0,0.0,59,0.00,,OVC036,0.00,VWS V14.01,2013-03-18 11:46:00,
2013-03-18 06:51:00,20.3,8.2,28.76,North,0,0.0,0.0,59,0.00,,OVC036,0.00,VWS V14.01,2013-03-18 11:51:00,
2013-03-18 06:58:00,20.3,8.2,28.76,North,0,0.0,0.0,59,0.00,,OVC036,0.00,VWS V14.01,2013-03-18 11:58:00,
2013-03-18 07:04:00,20.3,8.6,28.76,North,0,0.0,0.0,60,0.00,,OVC032,0.00,VWS V14.01,2013-03-18 12:04:00,
2013-03-18 07:09:00,20.3,8.6,28.76,North,0,0.0,0.0,60,0.00,,OVC032,0.00,VWS V14.01,2013-03-18 12:09:00,
2013-03-18 07:14:00,20.5,8.8,28.76,North,0,0.0,0.0,60,0.00,,OVC032,0.00,VWS V14.01,2013-03-18 12:14:00,
2013-03-18 07:20:00,20.5,8.8,28.76,North,0,0.0,0.0,60,0.00,,OVC032,0.00,VWS V14.01,2013-03-18 12:20:00,
2013-03-18 07:27:00,20.5,8.8,28.76,North,0,0.0,0.0,60,0.00,,OVC032,0.00,VWS V14.01,2013-03-18 12:27:00,
2013-03-18 07:33:00,20.5,9.2,28.76,North,0,0.0,0.0,61,0.00,,OVC032,0.00,VWS V14.01,2013-03-18 12:33:00,
2013-03-18 07:38:00,20.5,9.2,28.76,North,0,0.0,0.0,61,0.00,,OVC032,0.00,VWS V14.01,2013-03-18 12:38:00,
2013-03-18 07:44:00,20.3,9.0,28.76,North,0,0.0,0.0,61,0.00,,,0.00,VWS V14.01,2013-03-18 12:44:00,
2013-03-18 07:49:00,20.3,9.4,28.76,North,0,0.0,0.0,62,0.00,,,0.00,VWS V14.01,2013-03-18 12:49:00,
2013-03-18 07:54:00,20.3,9.4,28.76,North,0,0.0,0.0,62,0.00,,,0.00,VWS V14.01,2013-03-18 12:54:00,
2013-03-18 07:59:00,20.1,9.5,28.76,North,0,0.0,0.0,63,0.00,,,0.00,VWS V14.01,2013-03-18 12:59:00,
2013-03-18 08:05:00,20.1,9.9,28.76,North,0,0.0,0.0,64,0.00,,,0.00,VWS V14.01,2013-03-18 13:05:00,
2013-03-18 08:11:00,20.1,9.9,28.76,North,0,0.0,0.0,64,0.00,,,0.00,VWS V14.01,2013-03-18 13:11:00,
2013-03-18 08:17:00,20.3,10.4,28.76,North,0,0.0,0.0,65,0.00,,,0.00,VWS V14.01,2013-03-18 13:17:00,
2013-03-18 08:23:00,20.3,10.4,28.76,North,0,0.0,0.0,65,0.00,,,0.00,VWS V14.01,2013-03-18 13:23:00,
2013-03-18 08:28:00,20.5,10.9,28.76,North,0,0.0,0.0,66,0.00,,,0.00,VWS V14.01,2013-03-18 13:28:00,
2013-03-18 08:33:00,20.6,11.4,28.73,North,0,0.0,0.0,67,0.00,,,0.00,VWS V14.01,2013-03-18 13:33:00,
2013-03-18 08:39:00,20.8,11.6,28.73,North,0,0.0,0.0,67,0.00,,,0.00,VWS V14.01,2013-03-18 13:39:00,
2013-03-18 08:44:00,21.4,12.5,28.73,North,0,0.0,0.0,68,0.00,,,0.00,VWS V14.01,2013-03-18 13:44:00,
2013-03-18 08:50:00,21.5,12.6,28.73,North,0,0.0,0.0,68,0.00,,,0.00,VWS V14.01,2013-03-18 13:50:00,
2013-03-18 08:55:00,21.9,13.0,28.73,North,0,0.0,0.0,68,0.00,,,0.00,VWS V14.01,2013-03-18 13:55:00,
2013-03-18 09:02:00,21.7,12.5,28.73,North,0,0.0,0.0,67,0.00,,,0.00,VWS V14.01,2013-03-18 14:02:00,
2013-03-18 09:08:00,21.7,12.5,28.73,North,0,0.0,0.0,67,0.00,,,0.00,VWS V14.01,2013-03-18 14:08:00,
2013-03-18 09:14:00,21.5,12.0,28.73,North,0,0.0,0.0,66,0.00,,,0.00,VWS V14.01,2013-03-18 14:14:00,
2013-03-18 09:19:00,21.7,12.1,28.73,North,0,0.0,0.0,66,0.00,,,0.00,VWS V14.01,2013-03-18 14:19:00,
2013-03-18 09:25:00,21.7,12.1,28.73,North,0,0.0,0.0,66,0.00,,,0.00,VWS V14.01,2013-03-18 14:25:00,
2013-03-18 09:30:00,22.1,12.5,28.73,North,0,0.0,0.0,66,0.00,,,0.00,VWS V14.01,2013-03-18 14:30:00,
2013-03-18 09:35:00,22.3,12.6,28.73,North,0,0.0,0.0,66,0.00,,,0.00,VWS V14.01,2013-03-18 14:35:00,
2013-03-18 09:40:00,22.6,13.0,28.73,North,0,0.0,0.0,66,0.00,,,0.00,VWS V14.01,2013-03-18 14:40:00,
2013-03-18 09:46:00,23.0,13.0,28.73,North,0,0.0,0.0,65,0.00,,,0.00,VWS V14.01,2013-03-18 14:46:00,
2013-03-18 09:52:00,23.2,13.2,28.70,North,0,0.0,0.0,65,0.00,,,0.00,VWS V14.01,2013-03-18 14:52:00,
2013-03-18 09:58:00,23.3,13.0,28.70,North,0,0.0,0.0,64,0.00,,,0.00,VWS V14.01,2013-03-18 14:58:00,
2013-03-18 10:03:00,23.5,12.8,28.70,North,0,0.0,0.0,63,0.00,,,0.00,VWS V14.01,2013-03-18 15:03:00,
2013-03-18 10:08:00,23.5,12.8,28.70,North,0,0.0,0.0,63,0.00,,,0.00,VWS V14.01,2013-03-18 15:08:00,
2013-03-18 10:14:00,23.7,12.6,28.70,North,0,0.0,0.0,62,0.00,,,0.00,VWS V14.01,2013-03-18 15:14:00,
2013-03-18 10:19:00,23.7,12.6,28.70,North,0,0.0,0.0,62,0.00,,,0.00,VWS V14.01,2013-03-18 15:19:00,
2013-03-18 10:25:00,23.7,12.6,28.70,North,0,0.0,0.0,62,0.00,,,0.00,VWS V14.01,2013-03-18 15:25:00,
2013-03-18 10:30:00,23.9,12.8,28.70,North,0,0.0,0.0,62,0.00,,,0.00,VWS V14.01,2013-03-18 15:30:00,
2013-03-18 10:37:00,24.2,13.1,28.67,North,0,0.0,0.0,62,0.00,,,0.00,VWS V14.01,2013-03-18 15:37:00,
2013-03-18 10:43:00,24.4,12.9,28.67,North,0,0.0,0.0,61,0.00,,,0.00,VWS V14.01,2013-03-18 15:43:00,
2013-03-18 10:49:00,24.6,13.4,28.70,North,0,0.0,0.0,62,0.00,,,0.00,VWS V14.01,2013-03-18 15:49:00,
2013-03-18 10:55:00,24.8,13.3,28.70,North,0,0.0,0.0,61,0.00,,,0.00,VWS V14.01,2013-03-18 15:55:00,
2013-03-18 11:00:00,24.8,13.3,28.70,North,0,0.0,0.0,61,0.00,,,0.00,VWS V14.01,2013-03-18 16:00:00,
2013-03-18 11:05:00,24.8,13.3,28.67,North,0,0.0,0.0,61,0.00,,,0.00,VWS V14.01,2013-03-18 16:05:00,
2013-03-18 11:10:00,24.8,13.3,28.67,North,0,0.0,0.0,61,0.00,,,0.00,VWS V14.01,2013-03-18 16:10:00,
2013-03-18 11:15:00,25.0,13.4,28.67,North,0,0.0,0.0,61,0.00,,,0.00,VWS V14.01,2013-03-18 16:15:00,
2013-03-18 11:21:00,25.0,13.4,28.67,North,0,0.0,0.0,61,0.00,,,0.00,VWS V14.01,2013-03-18 16:21:00,
2013-03-18 11:26:00,25.0,13.4,28.67,North,0,0.0,0.0,61,0.00,,,0.00,VWS V14.01,2013-03-18 16:26:00,
2013-03-18 11:31:00,25.0,13.4,28.67,North,0,0.0,0.0,61,0.00,,,0.00,VWS V14.01,2013-03-18 16:31:00,
2013-03-18 11:37:00,25.1,14.0,28.67,North,0,0.0,0.0,62,0.00,,,0.00,VWS V14.01,2013-03-18 16:37:00,
2013-03-18 11:42:00,25.1,13.6,28.67,North,0,0.0,0.0,61,0.00,,,0.00,VWS V14.01,2013-03-18 16:42:00,
2013-03-18 11:47:00,25.3,14.1,28.67,North,0,0.0,0.0,62,0.00,,,0.00,VWS V14.01,2013-03-18 16:47:00,
2013-03-18 11:52:00,25.3,14.1,28.67,North,0,0.0,0.0,62,0.00,,,0.00,VWS V14.01,2013-03-18 16:52:00,
2013-03-18 11:57:00,25.3,14.1,28.67,North,0,0.0,0.0,62,0.00,,,0.00,VWS V14.01,2013-03-18 16:57:00,
2013-03-18 12:03:00,25.3,14.1,28.64,North,0,0.0,0.0,62,0.00,,,0.00,VWS V14.01,2013-03-18 17:03:00,
2013-03-18 12:08:00,25.1,14.0,28.64,North,0,0.0,0.0,62,0.00,,,0.00,VWS V14.01,2013-03-18 17:08:00,
2013-03-18 12:13:00,25.3,14.5,28.64,North,0,0.0,0.0,63,0.00,,,0.00,VWS V14.01,2013-03-18 17:13:00,
2013-03-18 12:18:00,25.3,14.5,28.64,North,0,0.0,0.0,63,0.00,,,0.00,VWS V14.01,2013-03-18 17:18:00,
2013-03-18 12:24:00,25.3,14.9,28.64,North,0,0.0,0.0,64,0.00,,,0.00,VWS V14.01,2013-03-18 17:24:00,
2013-03-18 12:30:00,25.3,15.2,28.64,North,0,0.0,0.0,65,0.00,,,0.00,VWS V14.01,2013-03-18 17:30:00,
2013-03-18 12:35:00,25.9,15.7,28.64,North,0,0.0,0.0,65,0.00,,,0.00,VWS V14.01,2013-03-18 17:35:00,
2013-03-18 12:40:00,25.9,15.7,28.64,North,0,0.0,0.0,65,0.00,,,0.00,VWS V14.01,2013-03-18 17:40:00,
2013-03-18 12:45:00,26.0,16.2,28.64,North,0,0.0,0.0,66,0.00,,,0.00,VWS V14.01,2013-03-18 17:45:00,
2013-03-18 12:50:00,26.4,16.6,28.64,North,0,0.0,0.0,66,0.00,,,0.00,VWS V14.01,2013-03-18 17:50:00,
2013-03-18 12:56:00,26.9,17.1,28.64,North,0,0.0,0.0,66,0.00,,,0.00,VWS V14.01,2013-03-18 17:56:00,
2013-03-18 13:01:00,27.1,16.9,28.64,North,0,0.0,0.0,65,0.00,,,0.00,VWS V14.01,2013-03-18 18:01:00,
2013-03-18 13:07:00,27.5,17.3,28.64,North,0,0.0,0.0,65,0.00,,,0.00,VWS V14.01,2013-03-18 18:07:00,
2013-03-18 13:12:00,28.0,17.8,28.64,North,0,0.0,0.0,65,0.00,,,0.00,VWS V14.01,2013-03-18 18:12:00,
2013-03-18 13:17:00,28.6,17.9,28.64,North,0,0.0,0.0,64,0.00,,,0.00,VWS V14.01,2013-03-18 18:17:00,
2013-03-18 13:22:00,28.6,17.2,28.61,North,0,0.0,0.0,62,0.00,,,0.00,VWS V14.01,2013-03-18 18:22:00,
2013-03-18 13:28:00,28.6,16.8,28.61,North,0,0.0,0.0,61,0.00,,,0.00,VWS V14.01,2013-03-18 18:28:00,
2013-03-18 13:34:00,29.8,18.4,28.61,North,0,0.0,0.0,62,0.00,,,0.00,VWS V14.01,2013-03-18 18:34:00,
2013-03-18 13:40:00,30.7,18.9,28.61,North,0,0.0,0.0,61,0.00,,,0.00,VWS V14.01,2013-03-18 18:40:00,
2013-03-18 13:47:00,31.1,18.0,28.61,North,0,0.0,0.0,58,0.00,,,0.00,VWS V14.01,2013-03-18 18:47:00,
2013-03-18 13:53:00,31.3,17.4,28.61,North,0,0.0,0.0,56,0.00,,,0.00,VWS V14.01,2013-03-18 18:53:00,
2013-03-18 13:59:00,30.9,16.6,28.61,North,0,0.0,0.0,55,0.00,,,0.00,VWS V14.01,2013-03-18 18:59:00,
2013-03-18 14:05:00,30.5,15.9,28.61,North,0,0.0,0.0,54,0.00,,,0.00,VWS V14.01,2013-03-18 19:05:00,
2013-03-18 14:10:00,29.8,15.2,28.61,North,0,0.0,0.0,54,0.00,,,0.00,VWS V14.01,2013-03-18 19:10:00,
2013-03-18 14:15:00,29.3,15.1,28.61,North,0,0.0,0.0,55,0.00,,,0.00,VWS V14.01,2013-03-18 19:15:00,
2013-03-18 14:20:00,27.8,13.4,28.61,North,0,0.0,0.0,54,0.00,,,0.00,VWS V14.01,2013-03-18 19:20:00,
2013-03-18 14:26:00,25.9,11.9,28.61,North,0,0.0,0.0,55,0.00,,,0.00,VWS V14.01,2013-03-18 19:26:00,
2013-03-18 14:32:00,25.0,11.1,28.61,North,0,0.0,0.0,55,0.00,,,0.00,VWS V14.01,2013-03-18 19:32:00,
2013-03-18 14:38:00,24.1,10.6,28.61,North,0,0.0,0.0,56,0.00,,,0.00,VWS V14.01,2013-03-18 19:38:00,
2013-03-18 14:44:00,23.9,10.5,28.61,North,0,0.0,0.0,56,0.00,,,0.00,VWS V14.01,2013-03-18 19:44:00,
2013-03-18 14:50:00,23.7,10.3,28.61,North,0,0.0,0.0,56,0.00,,,0.00,VWS V14.01,2013-03-18 19:50:00,
2013-03-18 14:55:00,23.3,10.0,28.61,North,0,0.0,0.0,56,0.00,,,0.00,VWS V14.01,2013-03-18 19:55:00,
2013-03-18 15:00:00,22.6,9.7,28.61,North,0,0.0,0.0,57,0.00,,,0.00,VWS V14.01,2013-03-18 20:00:00,
2013-03-18 15:05:00,22.4,9.5,28.61,North,0,0.0,0.0,57,0.00,,OVC012,0.00,VWS V14.01,2013-03-18 20:05:00,
2013-03-18 15:10:00,21.7,8.4,28.61,North,0,0.0,0.0,56,0.00,,OVC012,0.00,VWS V14.01,2013-03-18 20:10:00,
2013-03-18 15:17:00,21.2,7.6,28.61,North,0,0.0,0.0,55,0.00,,OVC012,0.00,VWS V14.01,2013-03-18 20:17:00,
2013-03-18 15:23:00,20.8,7.2,28.64,North,0,0.0,0.0,55,0.00,,OVC012,0.00,VWS V14.01,2013-03-18 20:23:00,
2013-03-18 15:29:00,21.0,7.4,28.64,North,0,0.0,0.0,55,0.00,,OVC012,0.00,VWS V14.01,2013-03-18 20:29:00,
2013-03-18 15:35:00,21.0,7.4,28.64,North,0,0.0,0.0,55,0.00,,OVC012,0.00,VWS V14.01,2013-03-18 20:35:00,
2013-03-18 15:40:00,21.0,7.0,28.64,North,0,0.0,0.0,54,0.00,,OVC012,0.00,VWS V14.01,2013-03-18 20:40:00,
2013-03-18 15:45:00,21.2,7.2,28.64,North,0,0.0,0.0,54,0.00,,OVC012,0.00,VWS V14.01,2013-03-18 20:45:00,
2013-03-18 15:50:00,21.0,6.6,28.64,North,0,0.0,0.0,53,0.00,,OVC012,0.00,VWS V14.01,2013-03-18 20:50:00,
2013-03-18 15:55:00,21.2,6.7,28.64,North,0,0.0,0.0,53,0.00,,,0.00,VWS V14.01,2013-03-18 20:55:00,
2013-03-18 16:02:00,21.5,7.1,28.64,North,0,0.0,0.0,53,0.00,,,0.00,VWS V14.01,2013-03-18 21:02:00,
2013-03-18 16:08:00,21.4,6.5,28.64,North,0,0.0,0.0,52,0.00,,,0.00,VWS V14.01,2013-03-18 21:08:00,
2013-03-18 16:14:00,21.4,6.5,28.64,North,0,0.0,0.0,52,0.00,,,0.00,VWS V14.01,2013-03-18 21:14:00,
2013-03-18 16:19:00,21.7,6.8,28.64,North,0,0.0,0.0,52,0.00,,,0.00,VWS V14.01,2013-03-18 21:19:00,
2013-03-18 16:25:00,21.7,5.1,28.64,North,0,0.0,0.0,48,0.00,,,0.00,VWS V14.01,2013-03-18 21:25:00,
2013-03-18 16:30:00,21.5,4.9,28.64,North,0,0.0,0.0,48,0.00,,,0.00,VWS V14.01,2013-03-18 21:30:00,
2013-03-18 16:35:00,21.4,4.3,28.64,North,0,0.0,0.0,47,0.00,,,0.00,VWS V14.01,2013-03-18 21:35:00,
2013-03-18 16:41:00,21.0,3.9,28.64,North,0,0.0,0.0,47,0.00,,,0.00,VWS V14.01,2013-03-18 21:41:00,
2013-03-18 16:47:00,21.0,4.4,28.64,North,0,0.0,0.0,48,0.00,,,0.00,VWS V14.01,2013-03-18 21:47:00,
2013-03-18 16:53:00,21.0,4.8,28.64,North,0,0.0,0.0,49,0.00,,,0.00,VWS V14.01,2013-03-18 21:53:00,
2013-03-18 16:58:00,20.8,4.7,28.64,North,0,0.0,0.0,49,0.00,,,0.00,VWS V14.01,2013-03-18 21:58:00,
2013-03-18 17:04:00,20.8,4.7,28.64,North,0,0.0,0.0,49,0.00,,,0.00,VWS V14.01,2013-03-18 22:04:00,
2013-03-18 17:10:00,20.3,5.1,28.64,North,0,0.0,0.0,51,0.00,,,0.00,VWS V14.01,2013-03-18 22:10:00,
2013-03-18 17:15:00,19.9,5.1,28.64,North,0,0.0,0.0,52,0.00,,,0.00,VWS V14.01,2013-03-18 22:15:00,
2013-03-18 17:20:00,19.6,5.2,28.67,North,0,0.0,0.0,53,0.00,,,0.00,VWS V14.01,2013-03-18 22:20:00,
2013-03-18 17:25:00,19.4,5.1,28.67,North,0,0.0,0.0,53,0.00,,,0.00,VWS V14.01,2013-03-18 22:25:00,
2013-03-18 17:30:00,18.8,5.0,28.67,North,0,0.0,0.0,54,0.00,,,0.00,VWS V14.01,2013-03-18 22:30:00,
2013-03-18 17:35:00,18.5,4.6,28.67,North,0,0.0,0.0,54,0.00,,,0.00,VWS V14.01,2013-03-18 22:35:00,
2013-03-18 17:41:00,17.9,4.1,28.67,North,0,0.0,0.0,54,0.00,,,0.00,VWS V14.01,2013-03-18 22:41:00,
2013-03-18 17:46:00,17.6,4.2,28.67,North,0,0.0,0.0,55,0.00,,,0.00,VWS V14.01,2013-03-18 22:46:00,
2013-03-18 17:53:00,17.2,3.8,28.67,North,0,0.0,0.0,55,0.00,,,0.00,VWS V14.01,2013-03-18 22:53:00,
2013-03-18 17:58:00,16.7,3.3,28.67,North,0,0.0,0.0,55,0.00,,,0.00,VWS V14.01,2013-03-18 22:58:00,
2013-03-18 18:04:00,16.5,3.5,28.67,North,0,0.0,0.0,56,0.00,,,0.00,VWS V14.01,2013-03-18 23:04:00,
2013-03-18 18:09:00,16.5,3.5,28.67,North,0,0.0,0.0,56,0.00,,,0.00,VWS V14.01,2013-03-18 23:09:00,
2013-03-18 18:15:00,16.1,3.2,28.67,North,0,0.0,0.0,56,0.00,,,0.00,VWS V14.01,2013-03-18 23:15:00,
2013-03-18 18:21:00,15.6,2.7,28.67,North,0,0.0,0.0,56,0.00,,,0.00,VWS V14.01,2013-03-18 23:21:00,
2013-03-18 18:27:00,15.6,2.3,28.67,North,0,0.0,0.0,55,0.00,,,0.00,VWS V14.01,2013-03-18 23:27:00,
2013-03-18 18:32:00,15.6,2.3,28.67,North,0,0.0,0.0,55,0.00,,,0.00,VWS V14.01,2013-03-18 23:32:00,
2013-03-18 18:38:00,15.6,2.7,28.67,North,0,0.0,0.0,56,0.00,,,0.00,VWS V14.01,2013-03-18 23:38:00,
2013-03-18 18:43:00,15.4,2.5,28.67,North,0,0.0,0.0,56,0.00,,,0.00,VWS V14.01,2013-03-18 23:43:00,
2013-03-18 18:49:00,15.1,2.6,28.70,North,0,0.0,0.0,57,0.00,,,0.00,VWS V14.01,2013-03-18 23:49:00,
2013-03-18 18:54:00,14.9,2.4,28.70,North,0,0.0,0.0,57,0.00,,,0.00,VWS V14.01,2013-03-18 23:54:00,
2013-03-18 18:59:00,14.7,2.2,28.70,North,0,0.0,0.0,57,0.00,,,0.00,VWS V14.01,2013-03-18 23:59:00,
2013-03-18 19:05:00,14.7,2.2,28.70,North,0,0.0,0.0,57,0.00,,,0.00,VWS V14.01,2013-03-19 00:05:00,
2013-03-18 19:11:00,14.5,2.1,28.70,North,0,0.0,0.0,57,0.00,,,0.00,VWS V14.01,2013-03-19 00:11:00,
2013-03-18 19:16:00,14.2,2.1,28.70,North,0,0.0,0.0,58,0.00,,,0.00,VWS V14.01,2013-03-19 00:16:00,
2013-03-18 19:22:00,14.2,2.1,28.70,North,0,0.0,0.0,58,0.00,,,0.00,VWS V14.01,2013-03-19 00:22:00,
2013-03-18 19:27:00,14.0,1.9,28.70,North,0,0.0,0.0,58,0.00,,,0.00,VWS V14.01,2013-03-19 00:27:00,
2013-03-18 19:32:00,14.0,1.9,28.70,North,0,0.0,0.0,58,0.00,,,0.00,VWS V14.01,2013-03-19 00:32:00,
2013-03-18 19:38:00,13.8,2.1,28.70,North,0,0.0,0.0,59,0.00,,,0.00,VWS V14.01,2013-03-19 00:38:00,
2013-03-18 19:43:00,13.8,2.1,28.70,North,0,0.0,0.0,59,0.00,,,0.00,VWS V14.01,2013-03-19 00:43:00,
2013-03-18 19:48:00,13.6,2.0,28.70,North,0,0.0,0.0,59,0.00,,,0.00,VWS V14.01,2013-03-19 00:48:00,
2013-03-18 19:54:00,13.4,2.2,28.70,North,0,0.0,0.0,60,0.00,,,0.00,VWS V14.01,2013-03-19 00:54:00,
2013-03-18 19:59:00,13.4,2.2,28.70,North,0,0.0,0.0,60,0.00,,,0.00,VWS V14.01,2013-03-19 00:59:00,
2013-03-18 20:04:00,13.3,2.3,28.70,North,0,0.0,0.0,61,0.00,,,0.00,VWS V14.01,2013-03-19 01:04:00,
2013-03-18 20:09:00,13.3,2.3,28.70,North,0,0.0,0.0,61,0.00,,,0.00,VWS V14.01,2013-03-19 01:09:00,
2013-03-18 20:14:00,13.3,2.3,28.70,North,0,0.0,0.0,61,0.00,,,0.00,VWS V14.01,2013-03-19 01:14:00,
2013-03-18 20:20:00,13.3,2.7,28.70,North,0,0.0,0.0,62,0.00,,,0.00,VWS V14.01,2013-03-19 01:20:00,
2013-03-18 20:25:00,13.3,3.0,28.70,North,0,0.0,0.0,63,0.00,,,0.00,VWS V14.01,2013-03-19 01:25:00,
2013-03-18 20:30:00,13.3,3.0,28.70,North,0,0.0,0.0,63,0.00,,,0.00,VWS V14.01,2013-03-19 01:30:00,
2013-03-18 20:35:00,13.1,2.9,28.70,North,0,0.0,0.0,63,0.00,,,0.00,VWS V14.01,2013-03-19 01:35:00,
2013-03-18 20:41:00,13.1,3.2,28.70,North,0,0.0,0.0,64,0.00,,,0.00,VWS V14.01,2013-03-19 01:41:00,
2013-03-18 20:46:00,13.1,3.2,28.70,North,0,0.0,0.0,64,0.00,,,0.00,VWS V14.01,2013-03-19 01:46:00,
2013-03-18 20:51:00,12.9,3.0,28.73,North,0,0.0,0.0,64,0.00,,,0.00,VWS V14.01,2013-03-19 01:51:00,
2013-03-18 20:56:00,12.9,3.0,28.73,North,0,0.0,0.0,64,0.00,,,0.00,VWS V14.01,2013-03-19 01:56:00,
2013-03-18 21:02:00,12.9,2.7,28.73,North,0,0.0,0.0,63,0.00,,,0.00,VWS V14.01,2013-03-19 02:02:00,
2013-03-18 21:07:00,12.9,2.3,28.73,North,0,0.0,0.0,62,0.00,,,0.00,VWS V14.01,2013-03-19 02:07:00,
2013-03-18 21:13:00,12.7,2.2,28.73,North,0,0.0,0.0,62,0.00,,,0.00,VWS V14.01,2013-03-19 02:13:00,
2013-03-18 21:18:00,12.7,1.8,28.73,North,0,0.0,0.0,61,0.00,,,0.00,VWS V14.01,2013-03-19 02:18:00,
2013-03-18 21:23:00,12.7,1.5,28.73,North,0,0.0,0.0,60,0.00,,,0.00,VWS V14.01,2013-03-19 02:23:00,
2013-03-18 21:29:00,12.7,1.1,28.73,North,0,0.0,0.0,59,0.00,,,0.00,VWS V14.01,2013-03-19 02:29:00,
2013-03-18 21:34:00,12.7,0.8,28.73,North,0,0.0,0.0,58,0.00,,,0.00,VWS V14.01,2013-03-19 02:34:00,
2013-03-18 21:39:00,12.7,0.4,28.73,North,0,0.0,0.0,57,0.00,,,0.00,VWS V14.01,2013-03-19 02:39:00,
2013-03-18 21:44:00,12.7,0.4,28.73,North,0,0.0,0.0,57,0.00,,,0.00,VWS V14.01,2013-03-19 02:44:00,
2013-03-18 21:49:00,12.7,0.0,28.73,North,0,0.0,0.0,56,0.00,,,0.00,VWS V14.01,2013-03-19 02:49:00,
2013-03-18 21:55:00,12.9,0.6,28.73,North,0,0.0,0.0,57,0.00,,,0.00,VWS V14.01,2013-03-19 02:55:00,
2013-03-18 22:00:00,12.9,0.6,28.73,North,0,0.0,0.0,57,0.00,,,0.00,VWS V14.01,2013-03-19 03:00:00,
2013-03-18 22:05:00,12.9,0.6,28.73,North,0,0.0,0.0,57,0.00,,OVC070,0.00,VWS V14.01,2013-03-19 03:05:00,
2013-03-18 22:10:00,12.9,0.6,28.73,North,0,0.0,0.0,57,0.00,,OVC070,0.00,VWS V14.01,2013-03-19 03:10:00,
2013-03-18 22:16:00,12.9,0.6,28.73,North,0,0.0,0.0,57,0.00,,OVC070,0.00,VWS V14.01,2013-03-19 03:16:00,
2013-03-18 22:22:00,12.9,0.6,28.73,North,0,0.0,0.0,57,0.00,,OVC070,0.00,VWS V14.01,2013-03-19 03:22:00,
2013-03-18 22:27:00,12.9,0.6,28.73,North,0,0.0,0.0,57,0.00,,OVC070,0.00,VWS V14.01,2013-03-19 03:27:00,
2013-03-18 22:32:00,12.9,0.6,28.73,North,0,0.0,0.0,57,0.00,,OVC070,0.00,VWS V14.01,2013-03-19 03:32:00,
2013-03-18 22:37:00,12.9,0.2,28.73,North,0,0.0,0.0,56,0.00,,OVC070,0.00,VWS V14.01,2013-03-19 03:37:00,
2013-03-18 22:43:00,12.9,0.2,28.73,North,0,0.0,0.0,56,0.00,,OVC070,0.00,VWS V14.01,2013-03-19 03:43:00,
2013-03-18 22:48:00,12.9,0.2,28.73,North,0,0.0,0.0,56,0.00,,OVC070,0.00,VWS V14.01,2013-03-19 03:48:00,
2013-03-18 22:53:00,12.7,0.0,28.73,North,0,0.0,0.0,56,0.00,,OVC070,0.00,VWS V14.01,2013-03-19 03:53:00,
2013-03-18 22:58:00,12.7,0.0,28.73,North,0,0.0,0.0,56,0.00,,OVC070,0.00,VWS V14.01,2013-03-19 03:58:00,
2013-03-18 23:00:00,12.7,0.0,28.73,North,0,0.0,0.0,56,0.00,,OVC070,0.00,VWS V14.01,2013-03-19 04:00:00,
2013-03-18 23:01:00,12.7,0.0,28.73,North,0,0.0,0.0,56,0.00,,OVC070,0.00,VWS V14.01,2013-03-19 04:01:00,
2013-03-18 23:04:00,12.7,-0.4,28.73,North,0,0.0,0.0,55,0.00,,,0.00,VWS V14.01,2013-03-19 04:04:00,
2013-03-18 23:09:00,12.7,-0.4,28.73,North,0,0.0,0.0,55,0.00,,,0.00,VWS V14.01,2013-03-19 04:09:00,
2013-03-18 23:14:00,12.7,-0.4,28.73,North,0,0.0,0.0,55,0.00,,,0.00,VWS V14.01,2013-03-19 04:14:00,
2013-03-18 23:19:00,12.7,-0.8,28.73,North,0,0.0,0.0,54,0.00,,,0.00,VWS V14.01,2013-03-19 04:19:00,
2013-03-18 23:24:00,12.5,-0.9,28.73,North,0,0.0,0.0,54,0.00,,,0.00,VWS V14.01,2013-03-19 04:24:00,
2013-03-18 23:30:00,12.5,-0.9,28.73,North,0,0.0,0.0,54,0.00,,,0.00,VWS V14.01,2013-03-19 04:30:00,
2013-03-18 23:35:00,12.5,-0.9,28.73,North,0,0.0,0.0,54,0.00,,,0.00,VWS V14.01,2013-03-19 04:35:00,
2013-03-18 23:40:00,12.5,-1.3,28.73,North,0,0.0,0.0,53,0.00,,,0.00,VWS V14.01,2013-03-19 04:40:00,
2013-03-18 23:46:00,12.4,-1.9,28.73,North,0,0.0,0.0,52,0.00,,,0.00,VWS V14.01,2013-03-19 04:46:00,
2013-03-18 23:51:00,12.4,-1.9,28.73,North,0,0.0,0.0,52,0.00,,,0.00,VWS V14.01,2013-03-19 04:51:00,
2013-03-18 23:56:00,12.2,-2.1,28.73,North,0,0.0,0.0,52,0.00,,,0.00,VWS V14.01,2013-03-19 04:56:00,